Location: Jaite
(41.2884°N, 81.5737°W)
Time: 08:36:44
(UTC+00:00)

ADEOS Rocket - Pass Details

Date: 15 November 2025
Orbit: 859 x 1304 km, 98.7° (Epoch: 13 December)

Event Time Altitude Azimuth Distance (km) Brightness Sun altitude
Rises 09:10:49 0° 9° (N) 3,927 6.3 -34.5°
Reaches altitude 10° 09:13:19 10° 7° (N) 3,024 5.6 -34.1°
Enters shadow 09:16:32 30° 357° (N) 1,963 4.5 -33.5°
